Location: Bergheim
(50.9593°N, 6.6400°E)
Time: 10:02:04
(UTC+02:00)

ISS - Pass Details

Date: 19 May 2021
Orbit: 417 x 422 km, 51.6° (Epoch: 13 June)

Event Time Altitude Azimuth Distance (km) Brightness Sun altitude
Rises 00:28:42 0° 275° (W) 2,367 0.3 -18.0°
Reaches altitude 10° 00:30:48 10° 276° (W) 1,504 -0.7 -18.1°
Maximum altitude 00:34:11 78° 4° (N) 435 -3.7 -18.2°
Enters shadow 00:36:27 19° 89° (E) 1,062 -1.9 -18.3°
